Regional Weather Roundup
Issued by NWS Mt. Holly, NJ

Home | Current Version | Previous Version | Text Only | Print | Product List | Glossary On
Versions: 1 2 3 4 5 6 7 8 9 10 11 12 13 14 15 16 17 18 19 20 21 22 23 24 25 26 27 28 29 30 31 32 33 34 35 36 37 38 39 40 41 42 43 44 45 46 47 48 49 50
000
ASUS41 KPHI 260510
RWRPHI

REGIONAL WEATHER ROUNDUP
NATIONAL WEATHER SERVICE MOUNT HOLLY NJ
100 AM EDT SAT JUL 26 2014

NOTE:  "FAIR" INDICATES FEW OR NO CLOUDS BELOW 12,000 FEET WITH NO
SIGNIFICANT WEATHER AND/OR OBSTRUCTIONS TO VISIBILITY.

 * = STATION DOES NOT REPORT PRECIPITATION (E.G. RAIN, SNOW, ETC.)
        OR FOG.

NJZ015>026-260600-
SOUTHERN NEW JERSEY

CITY           SKY/WX    TMP DP  RH WIND       PRES   REMARKS
POMONA         CLEAR     64  62  93 CALM      30.02S
RIO GRANDE*    CLEAR     68  61  77 S5        30.03S
MILLVILLE      PTCLDY    61  59  93 CALM      30.02S
WRIGHTSTOWN    CLEAR     64  63  96 SW5       30.01R
MOUNT HOLLY    CLEAR     63  58  83 CALM      30.02R
TRENTON        CLEAR     67  59  75 SW3       30.01R

$$
NJZ001>014-260600-
NORTHERN NEW JERSEY

CITY           SKY/WX    TMP DP  RH WIND       PRES   REMARKS
SUSSEX         PTCLDY    60  57  89 CALM      30.01S
ANDOVER*         N/A     59  58  96 CALM      30.02S
MORRISTOWN     CLEAR     63  59  88 CALM      30.01S
NEWARK         PTCLDY    71  63  75 SW7       30.00S
TETERBORO      CLEAR     73  61  65 SW8       29.99S
CALDWELL       CLEAR     67  59  75 CALM      30.01S
ALLAIRE*       CLEAR     68  61  77 SW6       30.02R
TOMS RIVER*    CLEAR     61  57  88 CALM      30.03R

$$
PAZ043-044-047-054-055-060>062-066>071-260600-
EASTERN PENNSYLVANIA

CITY           SKY/WX    TMP DP  RH WIND       PRES   REMARKS
PHILADELPHIA   MOCLDY    70  57  63 S6        30.02R
NORTH PHILA    CLEAR     68  56  65 CALM      30.03R
BLUE BELL      CLEAR     61  57  88 CALM      30.01S
DOYLESTOWN     CLEAR     61  57  87 CALM      30.01S
QUAKERTOWN*    PTCLDY    59  57  94 CALM      30.03S
POTTSTOWN      PTCLDY    61  55  81 CALM      30.03S
LANCASTER      MOCLDY    63  57  81 CALM      30.02R
COATESVILLE    MOCLDY    66  54  63 W3        30.04R
READING        MOCLDY    64  56  75 CALM      30.01R
ALLENTOWN      PTCLDY    61  56  83 NW3       30.01S
MOUNT POCONO   PTCLDY    56  52  86 CALM      30.05S
HAZLETON       MOCLDY    54  52  94 CALM      30.07S
WILKES BARRE   MOCLDY    61  52  72 CALM      30.02S

$$
DEZALL-MDZ008-012-015-019-020-260600-
DELAWARE AND EASTERN MARYLAND

CITY           SKY/WX    TMP DP  RH WIND       PRES   REMARKS
WILMINGTON     MOCLDY    67  56  67 CALM      30.02S
DOVER          PTCLDY    65  61  86 S3        30.00S
GEORGETOWN     PTCLDY    66  59  78 SE8       30.03S
PATUXENT       PTCLDY    70  61  73 S3        30.02R
OCEAN CITY     PTCLDY    66  63  90 SW3       30.02S
WALLOPS ISLAND CLEAR     65  60  84 SW3       30.03S
CAMBRIDGE      PTCLDY    63  57  82 CALM      30.02S

$$
PAZ001-021-NYZ056-072-MDZ011-DCZ001-260600-
OTHER NEARBY LOCATIONS

CITY           SKY/WX    TMP DP  RH WIND       PRES   REMARKS
HARRISBURG     MOCLDY    65  56  72 SE5       30.01R
STATE COLLEGE  PTCLDY    61  55  82 CALM      30.03S
WILLIAMSPORT   MOCLDY    60  54  80 CALM      30.01R
BINGHAMTON     MOCLDY    63  52  67 SW5       30.02R
NEW YORK CITY  CLEAR     72  60  66 SW5       30.03S
BALTIMORE      MOCLDY    64  58  80 CALM      30.01R
WASHINGTON DC  MOCLDY    75  63  66 S9        30.02R

$$


USA.gov is the U.S. government's official web portal to all federal, state and local government web resources and services.